Temp
-7 -7 -7 -7 -7 -7 -7 -7 -9 -9 -6 -7 -7 -6 -7 -8 -8 -8 -8 -7 -7 -7 -7 -6 -6 -6 -6 -6 -6 -5 -5 -5 -5 -5 -5 -5 -5 -5 -5 -5 -5 -5 -5 -6 -6 -6 -6 -6 -6
-8 -8 -8 -7 -7 -8 -8 -8 -9 -8 -9 -6 -7 -7 -7 -7 -7 -6 -6 -7 -7 -7 -7 -6 -6 -6 -7 -7 -6 -6 -5 -6 -5 -5 -5 -5 -5 -5 -5 -5 -5 -5 -6 -6 -6 -6 -6 -6 -6
-9 -9 -8 -8 -8 -8 -9 -9 -10 -9 -7 -7 -7 -7 -8 -8 -6 -7 -7 -7 -7 -7 -7 -7 -6 -7 -7 -7 -7 -6 -6 -6 -6 -6 -5 -5 -5 -5 -6 -6 -6 -6 -6 -6 -6 -6 -6 -6 -6
-8 -8 -9 -8 -8 -8 -8 -11 -10 -10 -7 -7 -7 -7 -7 -8 -7 -7 -7 -8 -8 -7 -7 -7 -6 -6 -7 -7 -7 -6 -6 -6 -6 -6 -6 -6 -6 -6 -6 -6 -6 -7 -7 -6 -6 -6 -7 -7 -7
-9 -9 -8 -8 -9 -9 -8 -9 -7 -8 -8 -8 -8 -8 -7 -7 -8 -8 -8 -8 -8 -8 -7 -7 -7 -7 -7 -7 -7 -7 -7 -7 -7 -7 -6 -6 -6 -6 -6 -6 -7 -7 -7 -7 -7 -7 -7 -7 -7
-9 -9 -9 -8 -8 -9 -9 -8 -8 -8 -9 -10 -9 -8 -8 -7 -8 -8 -8 -8 -8 -8 -8 -7 -7 -7 -7 -7 -7 -7 -7 -7 -7 -7 -7 -7 -7 -7 -7 -7 -7 -7 -7 -7 -7 -7 -7 -7 -8
-9 -9 -9 -9 -9 -10 -9 -8 -9 -8 -10 -11 -11 -9 -9 -7 -7 -8 -8 -9 -8 -8 -8 -8 -7 -7 -7 -8 -8 -7 -7 -7 -7 -8 -7 -7 -7 -7 -7 -7 -8 -8 -8 -8 -8 -8 -8 -8 -8
-10 -10 -10 -9 -9 -8 -11 -8 -8 -9 -9 -12 -10 -9 -10 -8 -8 -8 -9 -9 -9 -8 -8 -8 -8 -7 -7 -8 -8 -8 -8 -8 -8 -8 -8 -8 -8 -8 -8 -8 -8 -8 -8 -8 -8 -8 -8 -8 -8
-11 -10 -9 -9 -9 -9 -11 -12 -8 -9 -9 -10 -11 -10 -9 -8 -8 -8 -8 -9 -9 -9 -9 -8 -8 -8 -8 -8 -8 -9 -8 -8 -8 -8 -8 -8 -8 -8 -8 -8 -8 -8 -8 -8 -8 -8 -8 -8 -8
-10 -10 -9 -10 -10 -11 -13 -13 -12 -10 -10 -9 -9 -10 -10 -10 -9 -8 -8 -9 -9 -9 -9 -9 -8 -8 -8 -8 -8 -8 -9 -9 -8 -8 -8 -8 -8 -9 -9 -8 -8 -8 -8 -8 -9 -8 -8 -8 -8
-11 -10 -10 -10 -11 -12 -13 -14 -13 -13 -10 -10 -9 -9 -9 -10 -9 -9 -9 -9 -9 -9 -9 -9 -9 -8 -8 -8 -8 -9 -9 -9 -9 -8 -8 -8 -9 -9 -9 -9 -9 -9 -9 -9 -9 -8 -8 -8 -8
-11 -11 -11 -11 -11 -12 -12 -13 -13 -14 -13 -11 -10 -9 -9 -10 -10 -9 -9 -9 -9 -9 -9 -10 -9 -9 -8 -8 -8 -9 -10 -10 -9 -9 -9 -9 -9 -9 -9 -9 -9 -9 -9 -9 -9 -9 -9 -8 -9
-11 -12 -11 -12 -11 -11 -12 -12 -12 -13 -13 -13 -10 -9 -9 -12 -11 -10 -9 -9 -9 -9 -9 -8 -9 -10 -9 -9 -9 -9 -10 -10 -10 -9 -9 -9 -9 -9 -9 -9 -9 -9 -9 -9 -10 -10 -9 -10 -10
-12 -12 -12 -12 -12 -12 -12 -13 -13 -12 -13 -13 -11 -11 -10 -11 -13 -11 -10 -9 -10 -10 -9 -9 -10 -9 -9 -9 -10 -10 -9 -9 -10 -10 -10 -10 -10 -10 -10 -10 -10 -9 -9 -9 -10 -10 -10 -10 -11
-12 -12 -12 -12 -13 -12 -13 -12 -12 -13 -14 -12 -12 -11 -12 -12 -12 -13 -11 -10 -10 -10 -10 -9 -8 -10 -10 -9 -9 -9 -9 -9 -9 -10 -10 -10 -10 -10 -10 -10 -10 -9 -8 -9 -10 -10 -10 -10 -11
-13 -13 -13 -13 -13 -13 -13 -12 -13 -13 -13 -13 -13 -12 -12 -12 -12 -12 -13 -11 -10 -10 -9 -9 -9 -8 -9 -9 -10 -9 -9 -9 -9 -9 -10 -10 -10 -10 -9 -10 -10 -9 -9 -10 -10 -10 -10 -10 -10
-14 -14 -14 -14 -14 -13 -14 -13 -13 -14 -13 -13 -13 -13 -12 -13 -13 -12 -13 -12 -11 -10 -10 -9 -9 -9 -9 -9 -9 -9 -9 -9 -10 -9 -9 -9 -9 -9 -9 -10 -10 -9 -10 -10 -9 -10 -11 -10 -11
-16 -16 -15 -15 -16 -13 -13 -14 -14 -14 -13 -13 -13 -13 -13 -12 -13 -13 -13 -12 -11 -10 -10 -10 -9 -9 -9 -9 -9 -9 -9 -10 -9 -10 -10 -9 -10 -9 -10 -10 -10 -10 -9 -10 -11 -11 -10 -10 -11
-14 -14 -15 -15 -15 -14 -14 -14 -14 -14 -14 -13 -13 -13 -13 -13 -13 -12 -11 -12 -11 -11 -11 -10 -9 -9 -9 -10 -9 -9 -10 -10 -10 -10 -10 -9 -9 -9 -10 -9 -10 -10 -9 -10 -11 -10 -10 -10 -12
-15 -15 -15 -15 -15 -15 -14 -14 -14 -14 -14 -14 -14 -14 -14 -13 -13 -13 -11 -13 -12 -10 -11 -10 -10 -9 -10 -10 -10 -10 -10 -9 -10 -10 -10 -10 -9 -10 -10 -10 -10 -10 -10 -11 -11 -11 -11 -11 -11
-15 -15 -15 -15 -16 -14 -14 -14 -14 -15 -14 -14 -14 -14 -14 -14 -13 -13 -12 -11 -12 -12 -11 -11 -10 -10 -10 -10 -10 -10 -10 -10 -10 -10 -10 -10 -10 -9 -10 -10 -10 -9 -11 -11 -11 -11 -11 -11 -11
-16 -16 -16 -15 -15 -15 -17 -15 -15 -15 -14 -14 -14 -14 -14 -14 -14 -14 -13 -12 -12 -13 -12 -11 -11 -11 -11 -9 -10 -10 -10 -10 -10 -10 -10 -9 -10 -9 -9 -9 -10 -10 -11 -12 -11 -10 -11 -11 -11
-16 -16 -16 -16 -16 -16 -15 -16 -15 -16 -17 -16 -15 -14 -14 -14 -14 -13 -13 -13 -13 -13 -12 -12 -11 -12 -12 -11 -11 -11 -10 -10 -10 -10 -10 -9 -10 -10 -10 -10 -10 -11 -11 -12 -8 -11 -11 -11 -11
-16 -17 -17 -17 -17 -18 -16 -18 -16 -17 -17 -17 -15 -14 -15 -14 -14 -13 -14 -14 -14 -14 -13 -12 -12 -12 -11 -12 -12 -11 -11 -11 -12 -11 -10 -9 -11 -10 -10 -10 -11 -10 -11 -11 -11 -11 -11 -11 -11
-17 -18 -19 -19 -18 -17 -17 -18 -17 -18 -18 -19 -16 -16 -15 -14 -14 -14 -14 -13 -13 -14 -14 -14 -13 -12 -12 -12 -11 -11 -11 -11 -11 -11 -10 -10 -10 -10 -10 -10 -9 -10 -11 -11 -11 -11 -11 -10 -11
-19 -19 -19 -19 -18 -18 -18 -18 -18 -18 -19 -18 -17 -16 -16 -16 -16 -15 -14 -13 -13 -13 -13 -14 -13 -13 -13 -13 -12 -12 -12 -11 -11 -12 -11 -11 -11 -11 -11 -10 -10 -11 -12 -12 -12 -11 -11 -10 -11
-20 -20 -20 -19 -20 -19 -19 -18 -18 -18 -19 -18 -18 -17 -17 -16 -15 -15 -15 -15 -14 -14 -14 -13 -13 -13 -13 -13 -12 -12 -11 -12 -12 -12 -11 -12 -12 -12 -12 -12 -12 -12 -12 -12 -12 -11 -11 -11 -11
-20 -20 -20 -19 -19 -20 -19 -19 -18 -18 -19 -18 -18 -18 -17 -16 -16 -16 -15 -15 -15 -14 -14 -14 -13 -13 -13 -13 -12 -12 -12 -12 -11 -11 -12 -12 -12 -12 -12 -13 -12 -12 -12 -12 -11 -12 -12 -11 -12
-21 -20 -21 -21 -21 -20 -20 -19 -18 -18 -19 -19 -20 -18 -17 -17 -17 -16 -16 -16 -15 -15 -14 -14 -13 -13 -13 -13 -13 -12 -12 -12 -12 -11 -11 -11 -12 -12 -12 -13 -13 -12 -13 -12 -11 -11 -12 -12 -12
-21 -21 -21 -21 -20 -21 -21 -20 -19 -19 -19 -19 -20 -19 -18 -18 -17 -17 -17 -17 -16 -16 -15 -14 -14 -14 -13 -13 -13 -12 -12 -12 -12 -11 -11 -11 -11 -11 -11 -12 -13 -12 -13 -12 -11 -12 -12 -11 -11
Height
5862 5865 5868 5871 5878 5880 5885 5890 5890 5883 5890 5890 5887 5895 5901 5902 5903 5907 5900 5903 5904 5906 5906 5906 5906 5907 5907 5907 5908 5907 5906 5905 5904 5903 5902 5901 5900 5898 5898 5897 5897 5895 5894 5892 5891 5890 5889 5887 5885
5857 5860 5863 5865 5870 5875 5883 5888 5880 5883 5876 5880 5889 5893 5896 5898 5893 5894 5895 5900 5901 5904 5904 5904 5904 5905 5906 5907 5907 5907 5906 5905 5903 5902 5902 5901 5899 5898 5897 5897 5897 5895 5894 5893 5891 5890 5889 5888 5885
5851 5854 5858 5858 5862 5867 5879 5876 5870 5874 5869 5879 5882 5885 5885 5886 5890 5894 5898 5899 5899 5901 5902 5902 5903 5904 5905 5905 5906 5906 5905 5905 5904 5903 5901 5900 5899 5898 5898 5897 5897 5895 5895 5895 5893 5890 5890 5889 5888
5844 5849 5852 5853 5856 5861 5861 5856 5856 5861 5867 5871 5875 5884 5881 5880 5886 5891 5895 5896 5897 5898 5899 5899 5901 5902 5903 5903 5903 5904 5904 5904 5903 5903 5901 5900 5899 5898 5898 5897 5896 5895 5894 5893 5894 5891 5889 5889 5888
5839 5842 5845 5847 5851 5853 5850 5849 5850 5853 5860 5863 5869 5874 5874 5875 5881 5887 5890 5893 5895 5895 5896 5897 5898 5899 5900 5900 5902 5902 5902 5902 5901 5901 5900 5900 5899 5900 5897 5896 5897 5895 5893 5892 5893 5891 5888 5887 5886
5831 5835 5837 5841 5845 5846 5842 5846 5848 5852 5855 5858 5859 5867 5869 5866 5876 5883 5887 5888 5890 5892 5893 5894 5894 5895 5896 5897 5898 5899 5900 5900 5899 5898 5898 5898 5898 5897 5898 5897 5897 5895 5894 5892 5892 5892 5889 5885 5883
5823 5827 5830 5834 5838 5839 5835 5839 5840 5844 5848 5854 5854 5852 5863 5853 5873 5878 5880 5882 5885 5887 5889 5891 5892 5893 5892 5892 5893 5895 5897 5897 5897 5897 5897 5897 5896 5895 5896 5896 5894 5893 5892 5892 5890 5889 5889 5886 5882
5816 5818 5820 5826 5829 5832 5833 5829 5831 5831 5835 5843 5842 5853 5854 5840 5867 5871 5873 5876 5878 5881 5883 5885 5887 5889 5891 5890 5890 5891 5893 5894 5894 5894 5894 5895 5894 5893 5893 5893 5892 5891 5890 5889 5887 5886 5884 5885 5883
5808 5809 5812 5818 5821 5826 5826 5820 5822 5823 5824 5822 5835 5841 5838 5852 5858 5862 5867 5871 5872 5874 5876 5879 5882 5884 5886 5888 5888 5888 5889 5890 5890 5891 5892 5891 5891 5891 5890 5890 5890 5888 5887 5886 5885 5883 5882 5882 5881
5799 5801 5806 5812 5813 5814 5818 5819 5812 5814 5813 5818 5820 5832 5832 5838 5847 5851 5858 5860 5864 5868 5869 5872 5875 5878 5880 5882 5883 5884 5884 5886 5887 5888 5888 5889 5888 5887 5886 5886 5887 5885 5884 5884 5883 5883 5881 5880 5880
5793 5796 5799 5800 5802 5804 5806 5810 5810 5804 5805 5807 5816 5816 5816 5830 5839 5843 5846 5848 5853 5860 5861 5863 5867 5870 5873 5876 5878 5880 5881 5881 5883 5884 5884 5885 5885 5884 5883 5883 5883 5882 5882 5881 5881 5880 5879 5877 5876
5784 5787 5789 5791 5792 5792 5794 5795 5796 5799 5800 5797 5799 5812 5816 5820 5827 5833 5836 5840 5846 5850 5853 5854 5859 5862 5866 5868 5872 5875 5876 5878 5879 5879 5880 5881 5881 5881 5880 5879 5879 5878 5880 5878 5878 5878 5877 5873 5874
5777 5779 5780 5781 5781 5782 5782 5783 5787 5786 5789 5786 5794 5802 5808 5811 5815 5821 5827 5831 5836 5840 5844 5847 5849 5856 5858 5861 5864 5867 5871 5872 5873 5874 5874 5875 5876 5875 5876 5875 5875 5875 5876 5876 5874 5874 5875 5872 5872
5769 5768 5771 5772 5772 5774 5773 5773 5775 5781 5779 5780 5784 5791 5798 5800 5805 5808 5815 5818 5825 5829 5836 5840 5842 5848 5851 5853 5857 5860 5862 5865 5867 5867 5869 5870 5870 5871 5872 5871 5871 5871 5872 5872 5870 5871 5870 5869 5868
5761 5761 5762 5763 5762 5763 5763 5762 5765 5772 5768 5770 5769 5781 5785 5786 5793 5799 5801 5806 5814 5819 5825 5827 5825 5834 5840 5842 5846 5850 5853 5854 5855 5859 5862 5864 5865 5865 5866 5866 5867 5867 5868 5869 5867 5866 5866 5866 5862
5754 5753 5753 5755 5753 5753 5752 5755 5759 5758 5758 5760 5755 5771 5772 5780 5784 5784 5789 5796 5799 5806 5812 5815 5816 5811 5823 5830 5835 5839 5843 5847 5847 5851 5853 5856 5856 5857 5861 5860 5863 5864 5865 5864 5864 5863 5863 5861 5859
5746 5747 5746 5747 5742 5744 5744 5746 5749 5748 5746 5750 5750 5758 5764 5769 5769 5771 5774 5784 5790 5793 5798 5802 5803 5807 5806 5814 5820 5827 5831 5837 5842 5842 5846 5848 5851 5852 5853 5854 5860 5860 5860 5860 5862 5861 5860 5857 5856
5744 5743 5738 5738 5737 5733 5737 5737 5740 5740 5736 5739 5741 5746 5751 5755 5758 5758 5760 5768 5781 5783 5787 5790 5793 5798 5801 5804 5807 5813 5819 5826 5831 5835 5839 5842 5844 5848 5848 5850 5854 5856 5857 5856 5857 5858 5855 5854 5851
5730 5731 5729 5731 5728 5726 5726 5728 5729 5731 5727 5729 5732 5735 5740 5743 5744 5742 5748 5755 5762 5769 5772 5778 5783 5787 5795 5797 5797 5801 5806 5811 5818 5825 5830 5836 5839 5841 5845 5844 5846 5849 5848 5851 5851 5852 5850 5848 5848
5722 5722 5721 5720 5719 5717 5716 5718 5720 5721 5720 5721 5723 5726 5728 5730 5732 5732 5738 5746 5750 5756 5759 5764 5770 5776 5782 5787 5791 5793 5799 5804 5812 5816 5817 5826 5830 5835 5837 5840 5839 5839 5844 5846 5845 5846 5846 5846 5844
5715 5713 5712 5711 5709 5707 5707 5709 5709 5712 5710 5710 5713 5716 5718 5718 5719 5723 5725 5730 5734 5741 5746 5753 5758 5765 5771 5775 5782 5788 5789 5798 5802 5806 5810 5818 5819 5825 5827 5829 5829 5833 5838 5839 5839 5840 5839 5837 5837
5707 5705 5703 5701 5701 5700 5701 5696 5700 5700 5699 5699 5702 5704 5708 5709 5712 5712 5713 5714 5719 5728 5737 5740 5744 5753 5759 5765 5772 5775 5781 5789 5794 5794 5800 5803 5807 5816 5815 5818 5821 5828 5830 5832 5832 5835 5833 5832 5829
5698 5696 5693 5693 5692 5690 5693 5688 5692 5692 5691 5688 5690 5693 5696 5699 5702 5705 5706 5708 5711 5717 5722 5729 5735 5738 5742 5750 5759 5763 5772 5775 5779 5781 5788 5796 5798 5804 5805 5808 5813 5816 5822 5825 5821 5823 5825 5824 5827
5689 5687 5685 5683 5683 5680 5684 5684 5685 5687 5682 5677 5679 5682 5685 5688 5691 5694 5697 5700 5701 5706 5708 5717 5719 5728 5732 5737 5743 5749 5755 5762 5771 5778 5782 5788 5792 5794 5794 5795 5801 5803 5814 5817 5817 5814 5818 5818 5817
5679 5678 5678 5681 5681 5678 5682 5676 5679 5675 5672 5672 5670 5673 5676 5678 5680 5684 5687 5690 5693 5697 5700 5706 5709 5713 5716 5725 5731 5738 5745 5752 5758 5764 5771 5776 5780 5784 5788 5789 5784 5794 5803 5808 5807 5808 5811 5811 5811
5678 5674 5674 5670 5671 5671 5669 5664 5669 5666 5665 5660 5665 5666 5667 5670 5671 5673 5677 5680 5683 5687 5691 5694 5699 5702 5703 5710 5716 5723 5730 5737 5743 5750 5757 5761 5766 5771 5776 5781 5786 5792 5797 5800 5800 5800 5805 5804 5803
5668 5666 5668 5658 5658 5659 5661 5661 5662 5652 5656 5654 5656 5657 5658 5660 5662 5664 5666 5669 5671 5674 5679 5683 5686 5691 5695 5699 5704 5708 5715 5724 5729 5735 5744 5749 5755 5761 5766 5771 5779 5783 5786 5790 5792 5793 5794 5795 5794
5653 5657 5655 5651 5646 5649 5651 5653 5650 5648 5640 5644 5647 5648 5649 5649 5652 5653 5655 5657 5660 5663 5665 5668 5673 5677 5680 5685 5689 5694 5700 5706 5712 5720 5729 5736 5742 5749 5756 5759 5766 5773 5776 5779 5782 5784 5784 5788 5786
5647 5643 5642 5642 5641 5638 5641 5644 5631 5634 5634 5636 5636 5638 5640 5641 5642 5644 5645 5645 5647 5651 5653 5656 5659 5663 5666 5670 5675 5680 5686 5691 5698 5705 5713 5719 5726 5736 5743 5748 5754 5760 5766 5768 5772 5774 5776 5779 5779
5633 5633 5632 5630 5629 5630 5629 5629 5631 5628 5631 5630 5631 5630 5630 5630 5632 5632 5633 5636 5637 5636 5638 5642 5645 5647 5651 5656 5661 5667 5672 5677 5682 5690 5697 5705 5713 5721 5729 5736 5741 5748 5754 5759 5763 5764 5767 5769 5770
Wind_Speed
41 40 41 38 35 33 31 27 26 39 38 38 44 31 26 24 23 25 28 22 18 16 14 16 12 11 9 7 6 3 2 4 6 8 10 11 12 13 14 15 15 15 15 15 15 14 12 11 12
46 41 39 43 41 35 27 23 41 35 36 42 37 33 30 29 36 32 28 23 21 18 18 18 15 13 10 9 8 6 2 1 4 6 6 7 9 10 11 12 15 16 15 15 15 14 14 15 15
44 38 42 43 44 45 22 30 38 38 50 39 39 41 42 42 35 30 24 23 24 21 21 19 17 15 12 8 9 8 7 3 4 3 3 4 6 8 9 11 13 15 15 15 14 15 17 17 18
47 43 40 43 45 45 51 30 47 43 48 46 43 37 42 45 36 32 26 26 24 25 24 22 20 20 15 12 11 10 10 7 4 4 2 3 4 4 6 9 11 13 13 13 14 15 16 19 21
44 46 48 45 45 44 53 58 58 50 46 47 46 42 44 44 40 34 30 28 27 28 26 26 24 22 19 17 15 13 11 10 7 6 3 4 2 3 4 5 7 9 11 11 12 13 15 17 20
43 44 45 48 49 47 51 52 49 59 45 41 48 44 45 50 42 36 33 32 32 33 31 30 27 23 20 21 18 18 17 15 12 9 7 3 2 2 3 4 6 8 11 10 11 12 14 15 19
42 45 44 43 46 46 55 53 47 47 50 32 32 52 43 56 41 42 39 34 34 35 34 34 29 26 25 22 19 20 18 18 15 12 10 7 5 3 4 5 5 7 10 12 11 12 15 16 18
37 39 41 43 47 49 42 58 55 51 55 29 50 42 43 60 39 46 46 41 39 39 39 38 34 30 24 24 22 20 19 18 18 16 12 11 9 6 6 7 9 9 11 13 13 13 14 17 18
38 41 40 40 41 42 46 47 57 54 57 51 46 47 56 44 41 47 51 45 44 42 44 43 38 35 30 25 26 24 22 20 20 18 16 14 12 10 9 10 12 12 13 15 14 14 17 20 23
42 43 40 38 38 38 34 35 54 55 55 58 62 51 48 47 46 46 50 51 50 44 45 44 43 41 36 31 29 29 25 23 22 21 20 19 17 14 13 12 15 15 15 18 17 17 19 23 25
41 41 39 40 38 40 40 39 43 51 58 56 61 68 71 49 47 47 50 56 54 49 49 47 46 46 43 36 32 31 29 25 23 23 22 22 20 18 16 16 17 18 18 19 20 19 19 23 29
40 39 39 40 42 44 45 49 49 47 45 59 61 59 66 56 50 51 54 58 56 54 51 52 48 47 46 43 37 35 32 28 26 26 26 25 24 23 20 21 20 21 21 21 22 22 23 27 27
38 38 38 40 43 45 48 49 46 51 58 61 62 55 56 54 53 54 57 59 59 58 57 56 50 44 43 43 39 39 36 37 33 31 31 29 28 27 26 24 24 22 24 23 25 26 28 30 26
37 40 39 40 42 39 47 48 46 48 53 61 65 57 52 56 55 58 59 64 63 63 60 60 60 49 47 46 43 41 45 37 38 37 34 33 31 31 29 27 27 24 24 26 26 30 32 33 28
37 39 38 40 42 42 45 47 47 43 52 58 70 61 57 53 59 62 64 66 67 66 65 64 63 59 57 54 49 48 45 51 43 39 38 37 34 34 36 33 32 29 27 28 30 34 40 43 43
36 37 38 36 39 42 46 43 43 45 48 55 68 61 59 58 53 66 67 69 71 71 70 70 72 69 64 60 56 54 51 49 44 46 44 42 43 42 40 40 34 28 27 28 34 38 40 44 51
36 36 36 32 42 42 40 42 39 40 48 52 61 58 60 52 53 62 71 73 75 75 75 74 74 75 74 67 63 61 59 51 51 47 46 48 44 47 44 42 29 29 26 29 33 33 38 44 44
18 23 29 35 29 43 36 38 35 36 50 49 51 54 56 55 54 53 72 73 78 80 77 78 77 72 73 71 69 62 65 58 56 50 52 47 47 45 46 25 32 29 31 33 30 36 38 45 46
35 36 39 35 37 43 43 38 37 36 45 47 45 47 51 55 58 58 54 77 81 84 82 82 83 80 75 75 70 72 72 65 62 62 49 52 49 42 36 29 25 29 28 33 35 38 41 40 40
28 32 36 38 39 45 45 43 40 40 44 42 41 40 44 49 53 54 59 64 83 84 91 88 83 86 76 73 72 71 69 63 64 62 55 64 49 40 33 28 27 27 28 34 38 40 45 42 44
29 31 33 36 37 44 43 40 41 39 42 47 43 40 41 43 49 54 51 57 78 86 87 83 80 84 78 59 72 75 70 61 63 50 57 59 51 40 37 31 34 34 33 34 41 44 44 49 51
32 31 35 39 38 39 31 41 37 37 44 46 44 44 42 44 42 46 49 49 60 87 88 86 78 83 89 69 64 53 70 74 78 60 62 69 53 50 50 41 33 35 33 35 41 44 47 56 48
35 34 38 36 37 38 36 38 35 29 34 42 41 42 44 45 46 44 44 44 41 63 82 88 88 71 63 68 83 72 74 61 63 57 53 62 60 51 55 46 35 34 35 38 42 52 57 50 45
34 36 37 37 35 35 33 31 31 19 34 37 38 40 41 43 44 45 44 44 45 44 47 93 74 87 83 74 67 59 57 63 70 73 65 68 65 60 54 33 42 31 38 41 50 57 57 52 36
35 32 29 27 27 28 26 30 23 18 33 27 35 31 36 39 40 42 44 46 47 47 48 47 55 86 76 81 78 77 72 69 68 71 71 69 58 61 58 39 39 39 37 45 53 61 49 48 50
25 29 28 29 27 27 21 26 25 28 29 43 38 35 35 35 36 38 40 42 44 47 49 52 53 54 55 62 62 83 79 78 71 69 68 62 64 63 57 56 55 54 53 52 55 60 54 56 43
30 32 32 40 40 34 36 36 33 43 38 39 34 36 37 37 38 39 38 39 41 42 43 47 52 55 58 61 61 57 69 80 80 76 74 62 61 60 57 58 55 55 54 55 60 61 47 44 41
37 30 33 33 34 33 33 30 31 33 40 36 40 38 39 41 39 40 41 42 43 44 46 47 47 50 53 57 60 62 64 61 60 63 72 81 70 67 64 66 62 59 61 58 61 57 49 46 46
30 30 31 30 37 37 30 24 29 33 33 18 24 36 38 39 41 39 38 39 42 44 46 49 51 52 54 55 57 60 62 63 64 64 61 58 68 67 66 66 65 64 65 61 53 50 53 49 46
35 35 31 34 34 32 33 36 39 24 33 30 30 29 28 37 36 36 36 34 35 38 42 47 51 55 57 58 59 59 60 63 64 63 62 61 60 59 60 63 69 70 70 63 54 53 49 45 43
Wind_Direction
228 227 226 229 227 226 224 224 225 228 230 231 227 233 223 198 189 216 229 218 209 221 214 218 206 215 212 236 250 233 61 39 58 53 58 61 58 55 53 48 39 31 22 18 16 14 12 11 13
232 228 227 228 227 228 226 219 241 238 231 230 232 232 233 226 219 224 227 212 214 217 219 222 218 225 232 245 246 244 255 20 50 53 51 49 55 50 51 44 36 30 25 25 26 20 9 5 7
240 232 235 232 228 221 194 216 234 232 238 233 230 228 225 225 228 223 226 218 219 219 226 225 230 233 236 246 246 247 263 301 344 20 50 55 44 47 45 43 38 33 30 22 22 26 21 15 7
238 237 238 239 238 232 220 208 226 224 228 231 231 233 230 230 231 226 223 220 223 222 224 230 231 241 238 250 249 249 260 268 292 325 1 14 31 52 42 43 41 36 28 24 17 23 20 14 13
241 239 237 238 238 239 238 228 230 223 225 227 229 227 231 230 229 225 223 224 227 231 230 231 233 237 244 253 254 250 260 266 264 283 292 311 351 1 35 38 23 26 25 24 22 19 21 18 12
244 242 241 239 241 243 248 243 243 238 232 230 230 226 230 234 225 225 222 228 231 235 238 238 237 236 243 250 252 252 259 268 264 265 267 266 291 326 335 15 11 6 10 11 10 4 8 11 10
245 244 243 243 243 247 250 246 255 240 230 230 232 231 227 234 221 217 224 224 228 236 241 243 248 246 247 245 250 254 259 260 259 261 268 265 265 268 299 329 344 349 357 350 352 358 351 1 4
247 246 246 244 242 246 251 251 250 251 235 231 231 229 232 238 218 215 220 222 222 227 238 244 247 255 251 246 252 253 256 256 256 257 260 263 266 267 285 308 319 331 341 340 336 344 348 346 350
251 250 248 247 249 248 246 255 249 252 247 221 227 226 235 239 223 218 219 223 223 226 231 241 246 250 249 249 250 252 251 251 254 259 261 255 260 266 276 294 306 313 321 326 326 331 339 340 340
250 252 252 252 252 251 249 250 259 249 250 244 236 222 233 230 225 221 218 221 221 220 223 232 241 247 249 251 247 250 249 249 252 256 258 255 258 260 268 281 292 299 309 316 317 331 341 341 337
250 250 254 256 254 251 249 245 245 255 244 250 241 245 231 222 223 222 214 216 218 217 219 223 233 241 245 247 244 245 248 243 247 251 251 253 256 257 264 274 284 291 301 309 311 322 330 334 326
253 251 251 251 254 255 252 246 244 246 253 248 247 240 249 222 220 222 217 214 214 217 217 220 224 231 240 242 238 238 240 236 242 242 247 250 252 255 259 267 275 284 298 303 305 310 315 320 322
255 255 253 251 250 254 258 259 252 250 246 249 245 241 242 224 222 219 221 216 214 216 221 219 219 221 230 236 238 231 231 237 235 237 241 244 248 251 256 263 268 277 291 298 301 303 316 318 320
256 255 256 257 258 255 256 260 253 251 253 251 246 244 239 242 222 222 220 216 214 216 219 226 226 218 217 218 225 224 227 220 230 233 235 241 246 250 254 257 263 268 283 291 295 301 305 306 312
259 261 257 256 257 258 257 253 255 257 252 247 248 242 244 243 233 226 222 217 214 217 219 224 205 219 214 216 216 219 219 227 211 224 232 238 240 244 248 249 257 265 280 293 294 303 307 308 306
258 261 263 263 261 257 256 261 260 262 255 246 246 241 243 244 248 226 222 218 215 217 220 225 223 201 210 211 216 217 225 220 215 222 227 235 234 241 247 249 255 272 289 291 302 302 317 314 307
260 261 264 266 260 260 262 261 258 255 258 250 250 242 243 247 249 239 222 220 217 217 219 225 230 222 204 207 211 213 218 223 228 222 230 236 242 241 245 243 252 279 282 300 302 309 309 305 330
251 258 266 247 257 266 257 263 261 259 258 254 253 246 239 242 247 250 225 219 222 219 220 224 232 235 215 213 209 210 218 221 223 224 228 239 239 245 247 243 257 275 299 308 284 308 311 315 328
257 259 263 261 263 261 263 257 255 253 259 259 254 247 242 242 246 249 248 222 225 223 221 224 228 233 234 233 212 216 214 216 220 224 229 237 240 246 248 247 265 288 305 298 306 302 305 308 325
261 260 259 259 258 260 261 258 256 253 256 260 258 249 242 240 243 250 248 241 222 227 223 223 226 231 235 234 227 224 222 217 232 223 221 237 232 235 238 248 272 284 287 289 296 299 301 306 310
267 262 258 258 254 260 265 263 261 261 255 254 253 251 247 243 241 244 245 245 233 226 233 227 226 229 227 236 240 245 231 238 232 238 251 230 227 232 236 244 254 263 273 283 285 294 294 300 303
272 267 263 261 263 263 261 263 257 253 259 258 254 252 248 247 244 249 251 248 242 225 227 234 238 231 232 227 240 235 235 245 249 249 254 245 224 233 229 233 243 256 268 276 286 284 287 290 292
272 271 270 270 268 266 264 265 264 270 259 258 258 255 252 246 247 244 249 254 252 238 228 230 234 240 245 242 240 237 241 242 245 253 249 252 248 231 246 246 247 248 261 274 267 286 290 288 283
277 274 276 274 273 270 270 270 261 266 275 267 253 251 253 254 250 245 245 245 248 248 250 233 234 233 238 244 246 245 242 247 251 253 254 254 256 238 258 239 261 265 258 269 270 279 289 294 286
277 276 276 272 271 274 283 261 251 237 235 236 263 252 252 254 254 250 246 243 242 243 242 245 248 237 238 238 242 244 242 241 244 249 249 249 249 254 253 236 246 255 264 260 273 281 286 286 294
262 277 264 265 261 262 271 264 271 257 251 253 253 259 254 250 252 253 252 250 248 243 241 242 240 242 250 246 250 239 244 243 243 248 249 249 252 251 255 253 260 261 265 261 267 280 276 285 287
275 253 262 262 265 269 257 255 254 273 263 263 254 251 253 251 250 252 253 250 249 250 247 245 243 242 241 242 246 247 248 245 246 243 244 245 248 247 252 255 254 256 256 263 268 277 286 278 280
272 270 250 259 266 265 268 264 269 263 258 264 264 254 250 253 254 254 255 253 251 250 250 247 245 245 245 244 244 244 244 243 242 243 242 244 242 245 250 254 255 255 260 263 270 274 282 275 277
270 272 259 266 257 263 263 247 269 245 242 208 256 262 251 251 252 252 253 257 257 253 250 251 251 247 245 245 243 245 244 244 245 243 244 245 243 244 248 253 255 256 261 262 270 268 271 271 276
273 266 258 257 255 250 252 249 248 256 257 254 260 268 265 257 254 254 254 255 257 260 258 253 250 250 248 246 244 242 242 244 244 244 244 243 244 243 247 251 252 254 255 263 261 263 267 266 269